This is the latest recevied weather packets stored in our database for station/object N3WXO-1. If no packets are shown the sender has not sent any weather packets the latest 10 day(s).
| Time | Temp. | Humidity | Pressure | Rain* | Wind** | Luminosity | Snow |
|---|---|---|---|---|---|---|---|
| 1777738218 | 12.78° C | 50% | 1013.3 hPa | 0 mm | - | 719 W/m² | - |
| 1777737934 | 12.78° C | 49% | 1013.4 hPa | 0 mm | - | 693 W/m² | - |
| 1777737631 | 12.78° C | 54% | 1013.4 hPa | 0 mm | - | 895 W/m² | - |
| 1777737325 | 12.78° C | 53% | 1013.5 hPa | 0 mm | - | 851 W/m² | - |
| 1777737020 | 12.22° C | 55% | 1013.5 hPa | 0 mm | - | 881 W/m² | - |
| 1777736717 | 12.22° C | 52% | 1013.6 hPa | 0 mm | - | 854 W/m² | - |
| 1777736432 | 12.22° C | 59% | 1013.6 hPa | 0 mm | - | 858 W/m² | - |
| 1777736132 | 12.22° C | 59% | 1013.6 hPa | 0 mm | - | 617 W/m² | - |
| 1777735827 | 12.22° C | 56% | 1013.6 hPa | 0 mm | - | 742 W/m² | - |
| 1777735522 | 12.22° C | 55% | 1013.5 hPa | 0 mm | - | 156 W/m² | - |
| 1777735219 | 12.22° C | 55% | 1013.7 hPa | 0 mm | - | 93 W/m² | - |
| 1777734934 | 11.67° C | 58% | 1013.7 hPa | 0 mm | - | 97 W/m² | - |
| 1777734629 | 11.67° C | 57% | 1013.7 hPa | 0 mm | - | 93 W/m² | - |
| 1777734323 | 11.67° C | 62% | 1013.6 hPa | 0 mm | - | 795 W/m² | - |
| 1777734024 | 11.67° C | 61% | 1013.7 hPa | 0 mm | - | 807 W/m² | - |
| 1777733720 | 11.67° C | 63% | 1013.6 hPa | 0 mm | - | 779 W/m² | - |
| 1777733434 | 11.11° C | 65% | 1013.5 hPa | 0 mm | - | 826 W/m² | - |
| 1777733151 | 11.11° C | 68% | 1013.5 hPa | 0 mm | - | 856 W/m² | - |
| 1777732826 | 10.56° C | 67% | 1013.5 hPa | 0 mm | - | 214 W/m² | - |
| 1777732542 | 10.56° C | 68% | 1013.5 hPa | 0 mm | - | 810 W/m² | - |
| 1777732256 | 10° C | 70% | 1013.6 hPa | 0 mm | - | 763 W/m² | - |
| 1777731932 | 10° C | 70% | 1013.8 hPa | 0 mm | - | 777 W/m² | - |
| 1777731626 | 9.44° C | 72% | 1013.9 hPa | 0 mm | - | 193 W/m² | - |
| 1777731325 | 9.44° C | 71% | 1013.7 hPa | 0 mm | - | 749 W/m² | - |
| 1777731021 | 9.44° C | 72% | 1013.8 hPa | 0 mm | - | 77 W/m² | - |
* Rain latest hour (hover to see other rain measurements)
** Current wind speed in m/s (hover to see current wind gust speed)